www.pogodaiklimat.ru

Погода и климат >> Архив погоды >> Алжир >> Adrar


ПОГОДА в Adrar

  • Прогноз погоды в Adrar
  • Монитор погоды в Adrar
  • Климат города

АРХИВ ПОГОДЫ в Adrar

Время (UTC), дата Ветер
(напр.,м/с)
 
Видим.   Явления Облачность Т
(С)
Тd
(С)
f
(%)
Тe
(С)
Тes
(С)
Комфортность P
(гПа)
Po
(гПа)
Тmin
(С)
Tmax
(С)
R
(мм)
R24
(мм)
S
(см)
18 11.10 З 5 8000 м ясно +31.8 +9.0 24 +31 +31 жарко 1012.0 1012.0 +34.4
21 11.10 СЗ 4 9000 м ясно +26.5 +7.9 31 +26 +26 жарко 1013.7 1014.0
00 12.10 З 3 10 км ясно +25.0 +10.5 40 +26 +26 жарко 1014.2 1014.0
03 12.10 С 3 10 км ясно +21.2 +6.2 38 +22 +22 комфорт 1013.4 1013.0
06 12.10 СВ 2 10 км ясно +20.0 +9.3 50 +22 +22 комфорт 1013.9 1014.0 +19.4
09 12.10 штиль 0 8000 м 4/0
[Ci sp]
+25.6 +12.3 44 +27 +35 жарко 1015.9 1016.0
12 12.10 С 4 8000 м 5/3 1500 м
[Cu med, cong Ci sp]
+32.0 +12.5 30 +32 +39 жарко 1014.4 1014.0
15 12.10 С 4 8000 м 5/3 1500 м
[Cu med, cong Ci sp]
+33.5 +8.0 21 +32 +35 жарко 1012.8 1013.0
18 12.10 СЗ 4 8000 м 5/3 1500 м
[Cu med, cong Ci sp]
+31.7 +6.4 21 +30 +30 жарко 1012.5 1013.0 +34.0
21 12.10 СВ 8 8000 м 5/3 1500 м
[Cu med, cong Ci sp]
+27.7 +6.5 26 +27 +27 жарко 1013.7 1014.0
00 13.10 СВ 6 8000 м 3/0
[Ci sp]
+25.4 +8.3 34 +26 +26 жарко 1013.2 1013.0
03 13.10 СВ 6 8000 м 3/0
[Ci sp]
+23.7 +9.5 41 +25 +25 комфорт 1012.3 1012.0
06 13.10 СВ 7 8000 м 3/0
[Ci sp]
+23.5 +10.5 44 +25 +25 комфорт 1013.3 1013.0 +23.0
09 13.10 СВ 12 6000 м пыльный позёмок 3/0
[Ci sp]
+27.6 +12.5 39 +29 +29 жарко 1014.7 1015.0
12 13.10 СВ 8 8000 м ясно +34.0 +11.6 26 +34 +37 очень
жарко
1012.8 1013.0
15 13.10 СВ 5 10 км 3/0
[Ci sp]
+34.0 +8.1 20 +32 +35 жарко 1010.5 1011.0
18 13.10 С 9 10 км 3/0
[Ci sp]
+31.8 +7.5 22 +30 +30 жарко 1010.9 1011.0 +34.6
21 13.10 С 6 10 км ясно +26.0 +8.1 32 +26 +26 жарко 1012.4 1012.0
00 14.10 СВ 4 10 км ясно +24.4 +8.8 37 +25 +25 комфорт 1012.1 1012.0
03 14.10 СВ 4 10 км ясно +23.4 +9.8 42 +25 +25 комфорт 1011.4 1011.0
06 14.10 СВ 3 10 км ясно +19.2 +9.4 53 +20 +20 1011.9 1012.0 +19.0
09 14.10 СВ 4 10 км ясно +26.3 +13.9 46 +28 +33 жарко 1013.7 1014.0
12 14.10 СВ 4 10 км ясно +31.0 +11.4 30 +31 +41 жарко 1012.6 1013.0
15 14.10 СВ 4 10 км 1/0
[Ci sp]
+32.5 +8.5 23 +31 +35 жарко 1009.9 1010.0
18 14.10 СВ 3 10 км 3/0
[Ci sp]
+31.0 +5.7 20 +29 +29 жарко 1010.3 1010.0 +33.0
21 14.10 С 4 10 км ясно +25.0 +5.9 29 +25 +25 комфорт 1011.6 1012.0
00 15.10 С 5 10 км ясно +23.8 +5.7 31 +24 +24 комфорт 1011.4 1011.0
03 15.10 СВ 3 10 км ясно +21.0 +4.9 35 +22 +22 комфорт 1010.5 1011.0
06 15.10 СВ 4 10 км ясно +19.0 +4.5 38 +19 +19 1011.3 1011.0 +18.5
09 15.10 ЮВ 9 10 км 4/0
[Ci sp]
+28.0 +8.2 29 +28 +28 жарко 1012.4 1012.0
12 15.10 З 4 10 км 4/0
[Ci sp]
+33.0 +7.7 21 +31 +41 жарко 1011.6 1012.0
15 15.10 З 6 10 км 3/0
[Ci sp]
+34.5 +5.6 17 +32 +35 жарко 1009.7 1010.0
18 15.10 штиль 0 10 км 3/0
[Ci sp]
+32.0 +5.8 19 +30 +30 жарко 1010.0 1010.0 +34.8
21 15.10 ЮВ 4 10 км 3/0
[Ci sp]
+25.8 +6.1 28 +25 +25 комфорт 1010.3 1010.0
00 16.10 ЮВ 5 10 км 3/0
[Ci sp]
+23.6 +5.9 32 +24 +24 комфорт 1009.5 1010.0
03 16.10 Ю 7 10 км 3/0
[Ci sp]
+24.3 +5.9 31 +24 +24 комфорт 1007.3 1007.0
06 16.10 Ю 7 7000 м 3/0
[Ci sp]
+22.0 +4.4 32 +22 +22 комфорт 1008.1 1008.0 +21.8
09 16.10 ЮЗ 8 7000 м 6/0
[Ci sp]
+28.3 +6.8 26 +28 +28 жарко 1009.3 1009.0
12 16.10 З 12 7000 м пыльный позёмок 6/3 1500 м
[Cu med, cong Ci sp]
+34.2 +5.1 16 +32 +32 жарко 1008.0 1008.0
15 16.10 ЮЗ 13 3000 м пыльный позёмок 6/3 1500 м
[Cu med, cong Ac trans Ci sp]
+35.2 -2.4 9 +31 +31 жарко 1005.4 1005.0
18 16.10 З 8 7000 м 4/0
[Ac trans Ci sp]
+30.4 +0.9 15 +28 +28 жарко 1007.0 1007.0 +35.8
21 16.10 З 3 8000 м 3/0
[Ci sp]
+26.2 +2.2 21 +25 +25 комфорт 1008.1 1008.0
00 17.10 З 3 8000 м 3/0
[Ci sp]
+22.8 +2.7 27 +22 +22 комфорт 1007.5 1008.0
03 17.10 СВ 3 8000 м 3/0
[Ci sp]
+20.4 +3.9 34 +21 +21 комфорт 1006.9 1007.0
06 17.10 С 3 6000 м 3/0
[Ci sp]
+19.2 +4.6 38 +20 +20 1008.3 1008.0 +19.0
09 17.10 С 10 4000 м пыльный позёмок 3/0
[Ci sp]
+23.2 +10.9 46 +25 +26 комфорт 1009.2 1009.0
12 17.10 З 9 6000 м пыльный позёмок 3/0
[Ci sp]
+30.2 +11.8 32 +31 +32 жарко 1007.7 1008.0
15 17.10 С 7 8000 м ясно +33.0 +9.8 24 +32 +34 жарко 1005.7 1006.0
18 17.10 С 8 5000 м пыльный позёмок ясно +29.0 +8.6 28 +29 +29 жарко 1006.6 1007.0 +33.1
21 17.10 С 8 10 км ясно +25.0 +8.7 35 +25 +25 комфорт 1008.6 1009.0
00 18.10 С 5 10 км ясно +23.4 +8.3 38 +25 +25 комфорт 1008.8 1009.0
03 18.10 С 5 10 км ясно +19.3 +6.2 42 +20 +20 1007.9 1008.0
06 18.10 С 4 10 км ясно +17.0 +5.9 48 +17 +17 1008.8 1009.0 +16.8
09 18.10 СВ 5 10 км ясно +23.5 +9.7 42 +25 +28 комфорт 1009.8 1010.0
12 18.10 СВ 4 10 км ясно +28.2 +8.1 28 +28 +36 жарко 1008.2 1008.0

 

Местоположение метеостанции Adrar (Алжир): широта 27.88 долгота -0.18 высота над уровнем моря 283 м.

В архиве по умолчанию представлена погода в Adrar за последнюю неделю. Архивные данные за месяц целиком и за предыдущие месяцы, начиная с января 2011 года, Вы можете получить, выбрав интересующий диапазон дат из раскрывающегося списка и нажав кнопку "Ввод!".


*Определитесь, кто Вы:
робот инопланетянин человек

Внимание! Время в таблицах - всемирное. Для получения местного времени необходимо прибавить поправку, которая в Adrar равна 1 ч.

Смотрите также архив погоды в соседних городах и на ближайших метеорологических станциях:

Погода в Timimoun (Алжир) (159 км)
Погода в In-Salah (Алжир) (274 км)
Погода в Beni Abbes (Алжир) (316 км)
Погода в El-Golea (Алжир) (421 км)
Погода в Bechar (Алжир) (450 км)
Погода в Arak (Алжир) (490 км)
Погода в Abankor (Алжир) (520 км)
Погода в Ain Sefra (Алжир) (545 км)
Погода в In Ziza (Алжир) (561 км)
Погода в Moulay Lachen (Алжир) (594 км)

Пояснения к столбцам:

Ветер - указаны скорость ветра в м/с - средняя за 10 мин, порывы в срок и между сроками (в фигурных скобках) и направление, откуда дует ветер: С - северный, СВ - северо-восточный, В - восточный, ЮВ - юго-восточный, Ю - южный, ЮЗ - юго-западный, З - западный, СЗ - северо-западный.
Видимость - горизонтальная дальность видимости в метрах или километрах. При видимости от 1 до 10 км при отсутствии осадков обычно наблюдается дымка, при ухудшении видимости до 1 км и менее - туман. В сухую погоду видимость может ухудшаться дымом, пылью или мглою.
Явления - указаны атмосферные явления, наблюдавшиеся в срок или в последний час перед сроком; фигурными скобками обозначены явления, наблюдавшиеся между сроками (за 1-3 часа до срока); квадратными скобками обозначены град или гололедные отложения с указанием их диаметра в мм.
Облачность - указаны через наклонную черту общая и нижняя облачность в баллах и высота нижней границы облаков в метрах; квадратными скобками обозначены формы облаков: Ci - перистые, Cs - перисто-слоистые, Cc - перисто-кучевые, Ac - высококучевые, As - высокослоистые, Sc - слоисто-кучевые, Ns - слоисто-дождевые, Cu - кучевые, Cb - кучево-дождевые. Подробнее классификацию облаков см. в Атласе облаков (PDF).
T - Температура воздуха - температура, измеренная на высоте 2 м над землей.
Td - Температура точки росы - температура, при понижении до которой содержащийся в воздухе водяной пар достигнет насыщения.
f - Относительная влажность воздуха - влажноcть воздуха, измеренная на высоте 2 м над землей.
Te - Эффективная температура - температура, которую ощущает одетый по сезону человек в тени. Характеристика душности погоды. При расчете учитывается влияние влажности воздуха и скорости ветра на теплоощущения человека.
Tes - Эффективная температура на солнце - температура, которую ощущает человек, с поправкой на солнечный нагрев. Характеристика знойности погоды. Зависит от высоты солнца над горизонтом, облачности и скорости ветра. Ночью, в пасмурную погоду, а также при ветре 12 м/с и более поправка равна нулю.
P - Атмосферное давление - приведенное к уровню моря атмосферное давление.
Po - Атмосферное давление - измеренное на уровне метеостанции атмосферное давление.
Tmin - Минимальная температура - минимум температуры воздуха на высоте 2 м над землей.
Tmax - Максимальная температура - максимум температуры воздуха на высоте 2 м над землей.
R - Количество осадков - Количество выпавших осадков за период времени, мм. При наведении курсора мыши на число - период времени, за который выпало указанное количество осадков.
R24 - Количество осадков - Количество выпавших осадков за 24 часа, мм.
S - Снежный покров - Высота снежного покрова, см. При наведении курсора мыши на число - состояние снежного покрова и степень покрытия местности в баллах.